DELTA 4 R/B, 40535

Orbit data source: Space-Track

DELTA 4 R/B, 40535 is space debris in MEO originally from a launch on Wed, 25 Mar 2015 UTC launched from the Air Force Eastern Test Range (AFETR). Debris objects in space refer to the collection of defunct objects orbiting the Earth. Examples of debris include non-operational satellites, rocket bodies, and fragments generated from explosions, collisions, or faulty payload assembly.

Loading next visibility...
Identifier
40535, 2015-013B
Orbit
MEO
Country
Flag of USUS
Related business
Flag of USUnited Launch Alliance/Lockheed Martin (US)
Manufacturer
ULA Decatur
Mission
Spacecraft
Bus & Motor
DCSS-4, RL10B-2
Mass
2,850 kg wet, 2,850 kg dry
Launch date (UTC)
2015-03-25 (11 years ago)
Launch vehicle
Unknown
Launch site
Air Force Eastern Test Range (AFETR)
Object type
Payload
Rocket body
Debris
Shape & HBR
Cyl + 1 Nozzle, 6.0 m
Radar Cross Section
43.982 m², Large (>1 m²)

Expand to show TLE details & history
Last TLE update: 2 days ago

TLE from 2 days ago
0 DELTA 4 R/B
1 40535U 15013B   26144.13032044 -.00000021  00000-0  00000-0 0  9995
2 40535  52.6470 217.0672 0033271  67.4458 292.9630  1.92974643 78694
Epoch: 2026-05-24T03:07Z
TLE epoch observation values (Epoch: 2026-05-24T03:07:39.686Z)
Latitude
-0.00004°
Longitude
-71.5812°
Altitude
20,839.158 km
Speed
3.829 km/s
True Right ascension
14h 28m 17s
True Declination
0° 00' 00"
Sunlit
Object was in daylight at epoch
Visualization orbit readout
Latitude
Unknown
Longitude
Unknown
Altitude
Unknown
Speed
Unknown
Apparent Right ascension
Unknown
Apparent Declination
Unknown
Sunlit
N/A
Visualization observer readout
Local Sidereal Time
12:06:43
Azimuth
Unknown
Elevation
Unknown
Doppler factor
Unknown
Orbital elements
Apogee altitude
20,964.842 km
Perigee altitude
20,783.5 km
Semi-major axis
27,252.308 km
Eccentricity
0.00333
Inclination
52.647°
RAAN
217.0672°
Arg. of periapsis
67.4458°
True anomaly
292.61139°
Mean anomaly
292.963°
Eccentric anomaly
292.78725°
Mean motion
0.48243 °/min
Orbital period
746.22 mins
BSTAR
0
Loading maneuver chart data...
Computing Atmospheric mass density...
Loading historical data...
Loading historical data...
Loading historical data...
Loading historical data...
Loading historical data...
Loading historical data...
Loading historical data...

Documentation

Showing up to 5 results
|